Location: Weatherford
(35.5260°N, 98.7070°W)
Time: 00:26:30
(UTC-05:00)

Amateur Radio Satellites - All Passes

Search period start: 24 September 2016 23:56
Search period end: 25 September 2016 23:56
Location: Weatherford, 35.5260°N, 98.7070°W

Satellite Date Start Highest point End Downlink Frequencies (MHz)
Time Altitude Azimuth
QB50P1 25 Sep 00:01:26 00:02:31 11° 92° (E) 00:03:37 145.935-145.965
VELOX 1 25 Sep 00:05:27 00:09:18 29° 70° (ENE) 00:13:09 145.980
HUMSAT D 25 Sep 00:09:16 00:11:41 15° 267° (W) 00:14:06 437.325/437.525
DX 1 25 Sep 00:09:53 00:13:08 21° 68° (ENE) 00:16:23 434.975-435.025
ANTELSAT 25 Sep 00:13:03 00:17:20 54° 285° (WNW) 00:21:43 437.575/2403.000
POPSAT HIP 1 25 Sep 00:13:18 00:15:50 16° 94° (E) 00:18:22 437.405
CUBEBUG 1 25 Sep 00:18:19 00:22:38 54° 74° (ENE) 00:26:58 437.445
M-CUBED/EXP-1 PRIME 25 Sep 00:21:03 00:25:16 52° 70° (ENE) 00:29:11 437.505
NANOSAT C BR1 25 Sep 00:31:19 00:34:46 24° 96° (E) 00:38:12 145.865
TIGRISAT 25 Sep 00:34:55 00:38:49 33° 288° (WNW) 00:42:48 435.000
QB50P2 25 Sep 00:50:51 00:54:57 49° 100° (E) 00:59:02 145.880/145.840
JAS-2 25 Sep 00:51:14 00:58:37 42° 97° (E) 01:05:39 435.910
POLYITAN 1 25 Sep 00:53:06 00:57:12 49° 100° (E) 01:01:17 437.675
AISAT 25 Sep 00:57:09 01:01:34 65° 258° (WSW) 01:06:01 437.250
SO-50 25 Sep 00:57:21 01:00:21 17° 47° (NE) 01:03:18 436.795
JUGNU 25 Sep 00:58:34 01:02:06 16° 184° (S) 01:05:38 437.505
TISAT 1 25 Sep 01:14:33 01:17:17 17° 68° (ENE) 01:20:01 437.305
SPROUT 25 Sep 01:15:37 01:19:54 81° 260° (W) 01:24:11 437.525
UNISAT 6 25 Sep 01:16:29 01:18:00 12° 294° (WNW) 01:19:30 437.425
AUBIESAT-1 25 Sep 01:21:29 01:25:23 34° 256° (WSW) 01:29:02 437.475
UKube-1 25 Sep 01:22:42 01:27:00 73° 258° (WSW) 01:31:21 .
RS-15 25 Sep 01:27:55 01:34:37 16° 346° (NNW) 01:41:28 29.354- 29.394
50 SAT 25 Sep 01:28:50 01:31:44 23° 264° (W) 01:34:40 437.505
ESTCUBE 1 25 Sep 01:29:12 01:31:52 15° 267° (W) 01:34:31 437.505/2401.250
QB50P1 25 Sep 01:34:29 01:38:33 50° 286° (WNW) 01:42:36 145.935-145.965
DUCHIFAT 1 25 Sep 01:36:11 01:40:16 55° 285° (WNW) 01:44:21 145.980
VELOX 1 25 Sep 01:42:19 01:45:43 21° 265° (W) 01:49:08 145.980
DX 1 25 Sep 01:45:16 01:49:06 30° 262° (W) 01:52:58 434.975-435.025
POPSAT HIP 1 25 Sep 01:47:52 01:51:41 35° 288° (WNW) 01:55:31 437.405
SRMSAT 25 Sep 01:48:29 01:51:58 16° 175° (S) 01:55:28 437.500
BUGSAT 1 25 Sep 01:52:46 01:56:48 88° 106° (ESE) 02:00:49 437.445
CUBEBUG 1 25 Sep 01:57:48 01:59:11 11° 268° (W) 02:00:33 437.445
Cosmos 2491 25 Sep 01:57:59 02:04:23 22° 68° (ENE) 02:10:44 435.465 / 435.565
M-CUBED/EXP-1 PRIME 25 Sep 01:58:31 01:59:52 11° 261° (W) 02:01:12 437.505
BEESAT 25 Sep 01:58:45 01:59:53 11° 63° (ENE) 02:01:03 436.000
NANOSAT C BR1 25 Sep 02:07:05 02:10:21 23° 290° (WNW) 02:13:38 145.865
Oscar 19 25 Sep 02:12:17 02:16:26 24° 95° (E) 02:20:35 437.125/150
BEESAT 3 25 Sep 02:27:37 02:31:29 78° 118° (ESE) 02:35:25 437.485
QB50P2 25 Sep 02:28:39 02:30:17 12° 294° (WNW) 02:31:56 145.880/145.840
POLYITAN 1 25 Sep 02:30:54 02:32:32 12° 294° (WNW) 02:34:09 437.675
JAS-2 25 Sep 02:36:19 02:43:23 38° 293° (WNW) 02:50:14 435.910
SO-50 25 Sep 02:36:43 02:41:06 50° 245° (WSW) 02:45:23 436.795
Gurwin Techsat 1B 25 Sep 02:42:59 02:47:09 23° 95° (E) 02:51:17 435.225
JUGNU 25 Sep 02:48:48 02:50:19 11° 193° (SSW) 02:51:51 437.505
TISAT 1 25 Sep 02:48:50 02:52:38 33° 262° (W) 02:56:27 437.305
YUBILEINY 25 Sep 02:56:05 03:02:26 23° 82° (E) 03:08:46 435.215
ITUPSAT 1 25 Sep 03:04:03 03:08:40 55° 73° (ENE) 03:13:20 437.325
BEESAT 2 25 Sep 03:16:08 03:20:01 59° 301° (WNW) 03:23:57 435.950
SWISSCUBE 25 Sep 03:18:53 03:23:38 89° 256° (WSW) 03:28:25 437.505
BEESAT 25 Sep 03:32:18 03:37:01 72° 258° (WSW) 03:41:47 436.000
SRMSAT 25 Sep 03:36:52 03:40:23 16° 185° (S) 03:43:56 437.500
RS-15 25 Sep 03:46:15 03:54:27 19° 24° (NNE) 04:02:37 29.354- 29.394
Oscar 19 25 Sep 03:51:09 03:55:46 34° 290° (WNW) 04:00:19 437.125/150
MOZHAYETS 4 25 Sep 03:51:43 03:55:32 27° 70° (ENE) 03:59:22
Cosmos 2491 25 Sep 03:53:11 04:02:00 73° 267° (W) 04:10:44 435.465 / 435.565
ISS 25 Sep 04:00:15 04:02:10 14° 27° (NNE) 04:04:05 145.825
Cosmos 2504 25 Sep 04:00:22 04:05:15 19° 83° (E) 04:10:00 435.465 / 435.565
AO-7 25 Sep 04:14:49 04:21:40 28° 97° (E) 04:28:30 29.400- 29.500
Gurwin Techsat 1B 25 Sep 04:22:17 04:27:09 38° 290° (WNW) 04:32:01 435.225
PCSat 25 Sep 04:33:46 04:36:28 14° 103° (ESE) 04:39:10 145.827
ITAMSAT 1 25 Sep 04:36:28 04:41:42 80° 103° (ESE) 04:46:55 435.822/435.867
KKS-1 25 Sep 04:40:19 04:44:43 62° 75° (ENE) 04:49:07 437.445
ITUPSAT 1 25 Sep 04:44:42 04:46:48 13° 268° (W) 04:48:55 437.325
YUBILEINY 25 Sep 04:49:39 04:58:23 66° 279° (W) 05:07:07 435.215
CUBESAT XI-V 25 Sep 05:03:00 05:06:25 20° 68° (ENE) 05:09:49 437.345
AIST 2 25 Sep 05:10:11 05:14:14 73° 118° (ESE) 05:18:22 435.215
AIST 1 25 Sep 05:20:19 05:21:13 11° 85° (E) 05:22:05
STARS 25 Sep 05:23:00 05:27:24 89° 64° (ENE) 05:31:48 437.465
SRMSAT 25 Sep 05:28:05 05:28:46 10° 195° (SSW) 05:29:28 437.500
MOZHAYETS 4 25 Sep 05:28:53 05:32:36 24° 264° (W) 05:36:21
ISS 25 Sep 05:35:42 05:38:59 73° 224° (SW) 05:42:16 145.825
Cosmos 2504 25 Sep 05:50:27 05:57:56 64° 279° (W) 06:05:07 435.465 / 435.565
CUSAT 1 25 Sep 05:50:43 05:54:21 14° 61° (ENE) 05:57:46 437.405
HORYU 2 25 Sep 05:55:27 05:58:51 21° 96° (E) 06:02:14 437.375
Cosmos 2491 25 Sep 05:55:45 05:57:08 10° 285° (WNW) 05:58:30 435.465 / 435.565
RS-15 25 Sep 05:58:33 06:10:41 56° 53° (NE) 06:22:29 29.354- 29.394
AO-7 25 Sep 06:06:41 06:14:44 57° 293° (WNW) 06:22:45 29.400- 29.500
PCSat 25 Sep 06:13:52 06:19:13 65° 298° (WNW) 06:24:38 145.827
ITAMSAT 1 25 Sep 06:18:51 06:20:26 11° 298° (WNW) 06:22:02 435.822/435.867
BRITE-PL 25 Sep 06:20:32 06:24:18 22° 93° (E) 06:27:50 437.365/2234.400
AO-85 25 Sep 06:38:55 06:40:46 13° 45° (NE) 06:42:36 145.980
CUBESAT XI-V 25 Sep 06:39:14 06:43:30 35° 263° (W) 06:47:49 437.345
DANDE 25 Sep 06:48:15 06:53:58 20° 66° (ENE) 06:59:33 436.750
LilacSat-2 25 Sep 06:51:09 06:53:14 14° 93° (E) 06:55:19 437.200
AIST 2 25 Sep 06:52:06 06:53:12 11° 314° (NW) 06:54:19 435.215
AIST 1 25 Sep 06:53:58 06:58:15 52° 279° (W) 07:02:33
YUBILEINY 25 Sep 06:56:13 06:56:57 10° 299° (WNW) 06:57:40 435.215
CUSAT 1 25 Sep 07:29:55 07:37:47 80° 80° (E) 07:44:22 437.405
HORYU 2 25 Sep 07:31:31 07:35:22 29° 290° (WNW) 07:39:13 437.375
NOAA 15 25 Sep 07:46:15 07:51:35 81° 103° (ESE) 07:56:52 137.62
Cubesat XI-IV 25 Sep 07:50:58 07:56:19 72° 102° (ESE) 08:01:40 437.490
CUTE-I 25 Sep 07:52:09 07:57:31 75° 103° (ESE) 08:02:52 437.470
BRITE-PL 25 Sep 07:58:35 08:02:47 30° 291° (WNW) 08:06:42 437.365/2234.400
STRAND 1 25 Sep 08:02:25 08:07:28 75° 75° (ENE) 08:12:35 437.568
GOMX 1 25 Sep 08:03:37 08:08:01 61° 284° (WNW) 08:12:09 467.674
AO-7 25 Sep 08:04:36 08:05:42 10° 312° (NW) 08:06:48 29.400- 29.500
NOAA 18 25 Sep 08:06:39 08:12:08 79° 104° (ESE) 08:17:37 137.9125
RS-15 25 Sep 08:11:38 08:22:48 42° 253° (WSW) 08:33:40 29.354- 29.394
CANX-2 25 Sep 08:14:47 08:16:29 12° 92° (E) 08:18:10 2200.000
AO-85 25 Sep 08:17:38 08:21:36 53° 245° (WSW) 08:25:22 145.980
LilacSat-2 25 Sep 08:24:10 08:27:35 31° 287° (WNW) 08:31:01 437.200
O/OREOS (USA 219) 25 Sep 08:25:22 08:29:49 58° 107° (ESE) 08:34:19 437.305
DANDE 25 Sep 08:29:15 08:37:41 86° 264° (W) 08:45:34 436.750
HO-68 25 Sep 08:32:46 08:38:39 27° 96° (E) 08:44:29 435.675
CINEMA 3 25 Sep 08:38:22 08:41:57 28° 97° (E) 08:45:35 145.822/145.860
DOVE 4 25 Sep 08:40:48 08:44:56 57° 285° (WNW) 08:48:58 437.250
Cosmos 2499 25 Sep 09:11:35 09:17:41 30° 87° (E) 09:23:38 435.465 / 435.565
GONETS M04 25 Sep 09:11:54 09:20:00 43° 88° (E) 09:28:08
CUSAT 1 25 Sep 09:14:08 09:18:34 17° 280° (W) 09:22:40 437.405
PRISM 25 Sep 09:26:19 09:30:21 51° 74° (ENE) 09:34:26 437.425
NOAA 15 25 Sep 09:28:56 09:30:36 11° 299° (WNW) 09:32:16 137.62
COMPASS 1 25 Sep 09:32:19 09:36:18 40° 98° (E) 09:40:15 437.405
ZACube-1 25 Sep 09:33:04 09:34:38 12° 92° (E) 09:36:13 437.345
Cubesat XI-IV 25 Sep 09:33:19 09:35:44 13° 298° (WNW) 09:38:09 437.490
CUTE-I 25 Sep 09:34:38 09:36:52 13° 298° (WNW) 09:39:06 437.470
Oscar 11 25 Sep 09:36:49 09:38:43 13° 92° (E) 09:40:37 145.826/435.025
CUTE 1.7 + AOD 2 25 Sep 09:47:43 09:51:57 57° 285° (WNW) 09:56:09 437.475
CANX-2 25 Sep 09:48:25 09:52:33 47° 286° (WNW) 09:56:41 2200.000
NOAA 18 25 Sep 09:49:54 09:52:04 12° 299° (WNW) 09:54:14 137.9125
SEEDS 25 Sep 09:54:51 09:59:07 69° 283° (WNW) 10:03:19 437.485
TIGRISAT 25 Sep 09:56:50 09:58:11 11° 66° (ENE) 09:59:31 435.000
CUBEBUG 2 25 Sep 10:06:02 10:10:18 79° 102° (ESE) 10:14:42 437.445
O/OREOS (USA 219) 25 Sep 10:07:36 10:09:37 13° 303° (WNW) 10:11:38 437.305
DANDE 25 Sep 10:14:43 10:19:14 16° 280° (W) 10:23:38 436.750
CINEMA 3 25 Sep 10:15:55 10:18:55 19° 290° (WNW) 10:21:57 145.822/145.860
HO-68 25 Sep 10:19:42 10:26:33 50° 291° (WNW) 10:33:22 435.675
AAUSAT CUBESAT 2 25 Sep 10:26:25 10:30:32 55° 285° (WNW) 10:34:36 437.432
FUNcube-1 25 Sep 10:26:37 10:30:49 48° 100° (E) 10:35:04 145.935
UWE-3 25 Sep 10:30:35 10:34:53 83° 282° (WNW) 10:39:17 435.000/436.395/437.385
UNISAT 6 25 Sep 10:33:38 10:37:30 33° 72° (ENE) 10:41:19 437.425
DELFI C3 25 Sep 10:37:46 10:41:03 24° 96° (E) 10:44:18 145.870
BEESAT 3 25 Sep 10:48:12 10:51:01 18° 51° (NE) 10:53:49 437.485
JAS-2 25 Sep 11:03:49 11:06:20 12° 55° (NE) 11:08:56 435.910
Cosmos 2499 25 Sep 11:03:52 11:10:32 39° 283° (WNW) 11:17:04 435.465 / 435.565
PRISM 25 Sep 11:05:11 11:05:55 10° 268° (W) 11:06:39 437.425
ZACube-1 25 Sep 11:06:57 11:11:08 50° 285° (WNW) 11:15:23 437.345
ANTELSAT 25 Sep 11:08:40 11:12:57 88° 79° (E) 11:17:14 437.575/2403.000
GONETS M04 25 Sep 11:08:47 11:16:46 38° 285° (WNW) 11:24:51
COMPASS 1 25 Sep 11:09:09 11:11:28 15° 293° (WNW) 11:13:48 437.405
Oscar 11 25 Sep 11:10:53 11:15:03 47° 286° (WNW) 11:19:13 145.826/435.025
NANOSAT C BR1 25 Sep 11:22:00 11:23:58 13° 66° (ENE) 11:25:56 145.865
TIGRISAT 25 Sep 11:30:11 11:34:23 53° 260° (W) 11:38:33 435.000
BEESAT 2 25 Sep 11:36:59 11:40:32 29° 55° (NE) 11:44:03 435.950
QB50P2 25 Sep 11:40:53 11:44:20 25° 70° (ENE) 11:47:47 145.880/145.840
POLYITAN 1 25 Sep 11:43:08 11:46:35 25° 70° (ENE) 11:50:02 437.675
ESTCUBE 1 25 Sep 11:48:36 11:49:50 11° 91° (E) 11:51:05 437.505/2401.250
HUMSAT D 25 Sep 11:53:21 11:57:36 81° 282° (WNW) 12:01:53 437.325/437.525
FUNcube-1 25 Sep 12:04:39 12:06:37 13° 293° (WNW) 12:08:37 145.935
UNISAT 6 25 Sep 12:11:27 12:14:16 17° 266° (W) 12:17:04 437.425
CUBEBUG 1 25 Sep 12:11:58 12:13:42 12° 92° (E) 12:15:26 437.445
DELFI C3 25 Sep 12:12:41 12:15:44 21° 290° (WNW) 12:18:45 145.870
QB50P1 25 Sep 12:23:24 12:27:36 78° 76° (ENE) 12:31:49 145.935-145.965
DUCHIFAT 1 25 Sep 12:24:35 12:28:45 69° 76° (ENE) 12:32:55 145.980
BEESAT 3 25 Sep 12:25:09 12:28:45 33° 247° (WSW) 12:32:20 437.485
POPSAT HIP 1 25 Sep 12:36:39 12:40:51 73° 258° (WSW) 12:45:03 437.405
PHONESAT 2.4 25 Sep 12:37:47 12:40:41 62° 156° (SSE) 12:43:37 2401.200-2431.200
BUGSAT 1 25 Sep 12:39:23 12:43:14 38° 73° (ENE) 12:47:02 437.445
JAS-2 25 Sep 12:43:49 12:49:59 80° 74° (ENE) 12:57:01 435.910
AISAT 25 Sep 12:50:39 12:54:28 28° 97° (E) 12:58:14 437.250
NANOSAT C BR1 25 Sep 12:55:16 12:59:16 44° 261° (W) 13:03:18 145.865
50 SAT 25 Sep 12:58:52 13:02:10 30° 98° (E) 13:05:25 437.505
AUBIESAT-1 25 Sep 13:03:58 13:05:42 14° 100° (E) 13:07:26 437.475
SPROUT 25 Sep 13:05:13 13:08:26 21° 95° (E) 13:11:39 437.525
UKube-1 25 Sep 13:13:23 13:16:47 22° 96° (E) 13:20:10 .
BEESAT 2 25 Sep 13:15:12 13:18:08 20° 249° (WSW) 13:21:03 435.950
QB50P2 25 Sep 13:16:45 13:20:03 22° 264° (W) 13:23:21 145.880/145.840
POLYITAN 1 25 Sep 13:19:01 13:22:18 22° 264° (W) 13:25:35 437.675
ESTCUBE 1 25 Sep 13:22:30 13:26:57 57° 286° (WNW) 13:31:23 437.505/2401.250
Oscar 19 25 Sep 13:26:10 13:30:30 27° 68° (ENE) 13:34:50 437.125/150
VELOX 1 25 Sep 13:34:04 13:38:30 90° 116° (ESE) 13:42:53 145.980
AIST 2 25 Sep 13:34:52 13:38:02 20° 51° (NE) 13:41:10 435.215
DX 1 25 Sep 13:35:45 13:40:02 56° 101° (E) 13:44:16 434.975-435.025
M-CUBED/EXP-1 PRIME 25 Sep 13:37:31 13:40:44 56° 105° (ESE) 13:43:57 437.505
CUBEBUG 1 25 Sep 13:46:02 13:50:13 47° 286° (WNW) 13:54:21 437.445
Gurwin Techsat 1B 25 Sep 14:01:08 14:05:34 28° 68° (ENE) 14:10:02 435.225
PHONESAT 2.4 25 Sep 14:14:11 14:16:57 35° 350° (N) 14:19:43 2401.200-2431.200
BUGSAT 1 25 Sep 14:16:35 14:18:43 14° 266° (W) 14:20:50 437.445
AISAT 25 Sep 14:27:24 14:30:44 21° 291° (WNW) 14:34:03 437.250
JAS-2 25 Sep 14:32:54 14:35:56 14° 273° (W) 14:39:09 435.910
50 SAT 25 Sep 14:33:27 14:35:21 14° 292° (WNW) 14:37:15 437.505
TISAT 1 25 Sep 14:35:14 14:39:12 42° 99° (E) 14:43:09 437.305
AUBIESAT-1 25 Sep 14:37:31 14:40:11 23° 293° (WNW) 14:42:52 437.475
SPROUT 25 Sep 14:40:44 14:44:20 27° 289° (WNW) 14:47:53 437.525
UKube-1 25 Sep 14:49:10 14:52:45 26° 290° (WNW) 14:56:19 .
Cosmos 2491 25 Sep 14:55:40 15:02:36 27° 83° (E) 15:09:34 435.465 / 435.565
YUBILEINY 25 Sep 15:03:39 15:12:09 54° 79° (E) 15:20:35 435.215
PCSat 25 Sep 15:04:45 15:10:02 52° 60° (ENE) 15:15:18 145.827
Oscar 19 25 Sep 15:05:06 15:09:40 31° 263° (W) 15:14:16 437.125/150
ITUPSAT 1 25 Sep 15:08:31 15:11:48 18° 94° (E) 15:15:03 437.325
AO-7 25 Sep 15:10:50 15:17:50 31° 61° (ENE) 15:24:49 29.400- 29.500
AIST 2 25 Sep 15:12:46 15:16:34 33° 247° (WSW) 15:20:20 435.215
DX 1 25 Sep 15:14:16 15:15:41 11° 296° (WNW) 15:17:06 434.975-435.025
SWISSCUBE 25 Sep 15:22:26 15:26:37 29° 97° (E) 15:30:46 437.505
BEESAT 25 Sep 15:35:33 15:39:58 36° 98° (E) 15:44:21 436.000
Gurwin Techsat 1B 25 Sep 15:40:42 15:45:23 31° 263° (W) 15:50:05 435.225
Cosmos 2504 25 Sep 15:45:38 15:52:25 37° 77° (ENE) 15:59:32 435.465 / 435.565
PHONESAT 2.4 25 Sep 15:50:46 15:53:29 32° 7° (N) 15:56:12 2401.200-2431.200
ITAMSAT 1 25 Sep 15:51:23 15:56:32 89° 84° (E) 16:01:45 435.822/435.867
TISAT 1 25 Sep 16:12:25 16:14:26 13° 294° (WNW) 16:16:29 437.305
KKS-1 25 Sep 16:35:41 16:38:11 15° 94° (E) 16:40:40 437.445
ITUPSAT 1 25 Sep 16:45:15 16:49:45 40° 288° (WNW) 16:54:13 437.325
SO-50 25 Sep 16:47:11 16:52:01 79° 297° (WNW) 16:56:52 436.795
PCSat 25 Sep 16:49:24 16:52:57 18° 255° (WSW) 16:56:29 145.827
Cosmos 2491 25 Sep 16:50:14 16:58:48 57° 281° (W) 17:07:28 435.465 / 435.565
HORYU 2 25 Sep 16:51:42 16:54:03 14° 66° (ENE) 16:56:25 437.375
SWISSCUBE 25 Sep 17:00:20 17:04:15 25° 291° (WNW) 17:08:08 437.505
YUBILEINY 25 Sep 17:01:23 17:08:22 28° 276° (W) 17:15:20 435.215
AO-7 25 Sep 17:02:04 17:10:09 55° 257° (WSW) 17:18:16 29.400- 29.500
AIST 1 25 Sep 17:04:28 17:08:05 26° 77° (ENE) 17:11:40
BEESAT 25 Sep 17:13:58 17:17:28 21° 293° (WNW) 17:20:58 436.000
STARS 25 Sep 17:16:12 17:19:24 20° 95° (E) 17:22:34 437.465
MOZHAYETS 4 25 Sep 17:25:42 17:30:22 85° 284° (WNW) 17:35:00
PHONESAT 2.4 25 Sep 17:26:50 17:29:49 84° 198° (SSW) 17:32:47 2401.200-2431.200
BRITE-PL 25 Sep 17:27:09 17:31:37 25° 68° (ENE) 17:36:05 437.365/2234.400
NOAA 15 25 Sep 17:28:16 17:29:30 11° 61° (ENE) 17:30:46 137.62
GOMX 1 25 Sep 17:33:40 17:35:09 11° 64° (ENE) 17:36:38 467.674
CUTE-I 25 Sep 17:36:44 17:37:03 10° 60° (ENE) 17:37:22 437.470
Cosmos 2504 25 Sep 17:39:00 17:45:39 37° 272° (W) 17:52:42 435.465 / 435.565
NOAA 18 25 Sep 17:52:58 17:55:31 13° 62° (ENE) 17:58:03 137.9125
KKS-1 25 Sep 18:10:44 18:14:54 41° 287° (WNW) 18:19:02 437.445
HORYU 2 25 Sep 18:25:58 18:30:11 45° 260° (W) 18:34:26 437.375
SO-50 25 Sep 18:32:15 18:33:16 11° 317° (NW) 18:34:15 436.795
CUBESAT XI-V 25 Sep 18:38:15 18:42:57 72° 101° (ESE) 18:47:35 437.345
O/OREOS (USA 219) 25 Sep 18:38:17 18:42:53 68° 69° (ENE) 18:47:26 437.305
AIST 1 25 Sep 18:42:22 18:45:28 20° 272° (W) 18:48:33
CUSAT 1 25 Sep 18:50:09 18:51:54 11° 76° (ENE) 18:53:44 437.405
STARS 25 Sep 18:51:56 18:55:45 30° 289° (WNW) 18:59:32 437.465
HO-68 25 Sep 19:00:39 19:04:30 15° 57° (ENE) 19:08:21 435.675
LilacSat-2 25 Sep 19:02:31 19:06:15 76° 77° (ENE) 19:10:01 437.200
NOAA 15 25 Sep 19:03:11 19:08:29 86° 256° (WSW) 19:13:50 137.62
PHONESAT 2.4 25 Sep 19:04:12 19:05:37 13° 216° (SW) 19:07:01 2401.200-2431.200
BRITE-PL 25 Sep 19:04:25 19:09:45 43° 262° (W) 19:15:07 437.365/2234.400
GOMX 1 25 Sep 19:07:02 19:12:31 86° 257° (WSW) 19:17:50 467.674
Cubesat XI-IV 25 Sep 19:09:57 19:15:16 87° 76° (ENE) 19:20:36 437.490
CUTE-I 25 Sep 19:10:58 19:16:16 90° 45° (NE) 19:21:37 437.470
GONETS M04 25 Sep 19:27:20 19:32:40 17° 66° (ENE) 19:37:58
NOAA 18 25 Sep 19:30:02 19:35:30 74° 257° (WSW) 19:40:58 137.9125
CINEMA 3 25 Sep 19:37:33 19:40:50 20° 70° (ENE) 19:44:01 145.822/145.860
DOVE 4 25 Sep 19:41:59 19:47:08 86° 257° (WSW) 19:52:03 437.250
DANDE 25 Sep 19:55:17 19:57:19 12° 78° (ENE) 19:59:33 436.750
STRAND 1 25 Sep 20:16:15 20:20:52 32° 98° (E) 20:25:27 437.568
RS-15 25 Sep 20:17:56 20:28:31 45° 107° (ESE) 20:39:35 29.354- 29.394
CUBESAT XI-V 25 Sep 20:18:53 20:19:40 10° 297° (WNW) 20:20:26 437.345
COMPASS 1 25 Sep 20:20:50 20:23:45 19° 69° (ENE) 20:26:41 437.405
CUSAT 1 25 Sep 20:26:39 20:32:18 89° 91° (E) 20:39:34 437.405
CUTE 1.7 + AOD 2 25 Sep 20:36:56 20:41:06 66° 75° (ENE) 20:45:19 437.475
CANX-2 25 Sep 20:37:37 20:41:49 80° 76° (ENE) 20:46:05 2200.000
ISS 25 Sep 20:38:40 20:40:31 14° 128° (SE) 20:42:21 145.825
SEEDS 25 Sep 20:43:13 20:47:17 52° 75° (ENE) 20:51:24 437.485
HO-68 25 Sep 20:44:02 20:51:14 89° 63° (ENE) 20:58:26 435.675
AO-85 25 Sep 20:52:30 20:52:52 10° 106° (ESE) 20:53:14 145.980
Cosmos 2499 25 Sep 20:56:14 21:03:40 57° 80° (E) 21:11:38 435.465 / 435.565
CUBEBUG 2 25 Sep 21:01:16 21:05:17 42° 74° (ENE) 21:09:14 437.445
AAUSAT CUBESAT 2 25 Sep 21:13:07 21:17:12 62° 76° (ENE) 21:21:19 437.432
CINEMA 3 25 Sep 21:13:39 21:17:45 32° 262° (W) 21:21:43 145.822/145.860
FUNcube-1 25 Sep 21:19:48 21:23:10 25° 71° (ENE) 21:26:31 145.935
GONETS M04 25 Sep 21:21:45 21:30:36 87° 267° (W) 21:39:21
UWE-3 25 Sep 21:24:36 21:28:40 51° 75° (ENE) 21:32:42 435.000/436.395/437.385
DANDE 25 Sep 21:34:18 21:38:49 60° 283° (WNW) 21:44:56 436.750
COMPASS 1 25 Sep 21:55:25 21:59:04 29° 263° (W) 22:02:46 437.405
STRAND 1 25 Sep 21:55:39 21:59:51 26° 292° (WNW) 22:04:03 437.568
ZACube-1 25 Sep 21:59:30 22:03:39 85° 77° (ENE) 22:07:49 437.345
Oscar 11 25 Sep 22:02:03 22:06:21 88° 80° (E) 22:10:41 145.826/435.025
CUSAT 1 25 Sep 22:12:31 22:15:38 14° 300° (WNW) 22:19:03 437.405
ISS 25 Sep 22:13:36 22:16:42 42° 322° (NW) 22:19:50 145.825
SEEDS 25 Sep 22:22:38 22:23:16 10° 269° (W) 22:23:53 437.485
AO-85 25 Sep 22:27:27 22:32:45 86° 300° (WNW) 22:37:45 145.980
RS-15 25 Sep 22:29:34 22:40:45 51° 309° (NW) 22:52:34 29.354- 29.394
HO-68 25 Sep 22:36:36 22:39:41 13° 269° (W) 22:42:48 435.675
CUBEBUG 2 25 Sep 22:40:12 22:42:04 13° 267° (W) 22:43:56 437.445
HUMSAT D 25 Sep 22:41:34 22:45:24 43° 74° (ENE) 22:49:18 437.325/437.525
PRISM 25 Sep 22:45:49 22:49:55 61° 285° (WNW) 22:53:56 437.425
Cosmos 2499 25 Sep 22:50:30 22:56:15 24° 275° (W) 23:02:21 435.465 / 435.565
DELFI C3 25 Sep 22:54:17 22:58:11 54° 261° (W) 23:02:07 145.870
JUGNU 25 Sep 22:55:17 22:58:44 16° 175° (S) 23:02:10 437.505
FUNcube-1 25 Sep 22:56:09 22:59:20 21° 265° (W) 23:02:31 145.935
ANTELSAT 25 Sep 23:03:35 23:07:05 23° 96° (E) 23:10:37 437.575/2403.000
UWE-3 25 Sep 23:05:09 23:05:23 10° 268° (W) 23:05:38 435.000/436.395/437.385
GONETS M04 25 Sep 23:21:59 23:26:00 14° 283° (WNW) 23:30:00
TIGRISAT 25 Sep 23:24:20 23:28:24 36° 98° (E) 23:32:33 435.000
AISAT 25 Sep 23:45:39 23:48:46 19° 68° (ENE) 23:51:52 437.250
AUBIESAT-1 25 Sep 23:47:00 23:49:22 15° 65° (ENE) 23:51:40 437.475
SRMSAT 25 Sep 23:49:06 23:50:38 11° 166° (SSE) 23:52:09 437.500
